Location: Aldenham
(51.6667°N, 0.3500°W)
Time: 02:29:46
(UTC+00:00)

A-11 Canister half - Pass Details

Date: 22 February 2026
Orbit: 1513 x 1687 km, 47.2° (Epoch: 13 March)

Event Time Altitude Azimuth Distance (km) Brightness Sun altitude
Rises 01:28:48 0° 284° (WNW) 4,911 - -45.9°
Reaches altitude 10° 01:32:09 10° 279° (W) 3,903 - -45.7°
Maximum altitude 01:41:20 44° 212° (SSW) 2,112 - -45.0°
Drops below altitude 10° 01:50:12 10° 144° (SE) 3,766 - -44.3°
Sets 01:53:24 0° 138° (SE) 4,725 - -44.0°
